Location: Altleiningen
(49.5078°N, 8.0741°E)
Time: 05:39:35
(UTC+00:00)

OPS 6432 - Pass Details

Date: 14 June 2025
Orbit: 410 x 1480 km, 63.3° (Epoch: 12 July)

Event Time Altitude Azimuth Distance (km) Brightness Sun altitude
Rises 22:55:59 0° 318° (NW) 2,506 9.1 -16.8°
Reaches altitude 10° 22:58:12 10° 321° (NW) 1,554 8.0 -16.9°
Maximum altitude 23:01:31 69° 45° (NE) 446 4.4 -16.9°
Enters shadow 23:02:41 35° 120° (ESE) 687 5.0 -17.0°
